Lid_Strength_Index
0 1 4 5 10 10 13 11 8 9 9 6 6 7 8 7 9 12 2 1 0 0 0 -0 -1 -1 -2 -1 -1 -1 -1 -1 -1 -1 -1 -1 -1 -1 -1 -1 -2 -1 -1 -1 -2 -2 -1 -1 -1
1 3 6 7 12 15 13 9 10 8 7 6 6 6 7 9 5 4 3 1 -0 -0 0 0 -1 -2 -2 -1 -1 -1 -1 -1 -1 -1 -1 -1 -2 -2 -2 -1 -1 -1 -1 -1 -2 -1 -1 -1 -1
3 6 8 10 13 15 13 9 9 7 6 6 7 5 7 8 4 4 1 0 -0 0 0 0 -1 -1 -1 -1 -1 -1 -1 -1 -1 -1 -1 -2 -1 -1 -1 -2 -2 -1 -1 -1 -1 -1 -1 -1 -1
9 8 9 12 13 11 10 8 8 8 6 5 6 8 5 3 4 2 1 0 0 1 0 -1 -1 -1 -1 -1 -1 -1 -1 -1 -1 -1 -1 -1 -1 -1 -1 -1 -2 -2 -1 -1 -1 -1 -1 -1 -1
10 10 12 13 12 10 8 7 7 8 6 6 5 8 7 3 1 1 1 0 1 1 1 -0 -1 -1 -1 -1 -1 -1 -1 -1 -1 -1 -1 -1 -1 -1 -1 -1 -1 -1 -1 -1 -1 -1 -1 -1 -1
11 11 14 14 12 9 8 7 7 7 6 6 7 7 7 2 2 2 1 1 -0 0 1 0 -1 -1 -1 -1 -1 -1 -1 -1 -1 -1 -1 -1 -1 -1 -1 -1 -1 -1 -1 -1 -1 -1 -1 -2 -2
11 14 15 14 12 10 9 6 8 7 7 7 5 9 6 4 2 2 1 1 0 0 1 1 0 -1 -1 -1 -1 -1 -1 -1 -1 -2 -2 -1 -1 -1 -1 -1 -1 -1 -1 -1 -1 -2 -1 -2 -2
11 13 15 13 12 12 8 7 6 7 7 4 4 9 9 4 2 1 1 1 1 1 1 1 1 0 0 -0 -1 -1 -1 -1 -1 -1 -1 -1 -1 -1 -1 -2 -2 -1 -1 -1 -1 -2 -2 -2 -2
12 15 16 15 11 10 8 8 6 5 6 5 4 5 4 3 2 2 2 2 1 1 2 1 1 1 0 0 -0 -1 -1 -1 -1 -1 -1 -2 -1 -1 -1 -1 -1 -1 -2 -2 -2 -2 -2 -2 -2
13 16 15 13 10 10 9 8 7 7 7 7 6 4 3 3 3 4 4 4 3 2 1 1 1 1 0 -0 0 0 -0 -0 -0 -1 -1 -1 -1 -1 -1 -1 -1 -2 -2 -2 -2 -2 -2 -1 -0
14 15 13 12 11 9 11 11 6 7 9 7 7 6 4 4 4 4 3 3 3 2 1 1 1 1 0 -0 0 0 0 0 -0 -0 -0 -0 -1 -0 -0 -1 -1 -1 -1 -1 -1 -0 1 1 -1
14 13 12 12 11 11 11 11 7 7 6 5 5 5 4 4 4 4 4 3 2 2 1 1 0 1 0 0 0 0 -0 -0 -0 -0 -0 -0 -0 0 1 0 0 0 0 1 1 1 0 1 0
14 12 11 11 11 12 11 9 8 7 5 4 5 4 4 4 4 3 3 2 2 2 1 1 0 0 0 0 0 0 -0 -0 0 0 -0 -0 0 0 1 0 0 1 1 1 1 1 0 0 0
13 12 12 12 11 12 8 8 6 6 5 5 5 5 4 4 4 3 3 3 3 3 2 1 1 0 0 0 0 0 -0 -0 -0 1 1 0 1 1 1 1 1 1 1 0 0 -0 0 0 1
13 13 12 12 11 9 6 9 8 6 5 6 5 5 4 4 3 4 3 3 2 3 2 2 1 0 0 0 0 -0 -0 -0 0 0 1 1 0 1 0 1 1 0 0 0 0 0 1 1 1
14 14 15 12 11 7 8 11 8 6 6 7 6 5 5 4 4 3 3 3 2 2 3 2 1 1 1 1 0 0 1 0 0 1 1 1 0 0 1 1 1 0 0 0 2 1 1 1 1
16 17 16 13 12 10 11 10 8 6 7 7 6 6 5 5 4 3 3 3 3 2 3 3 2 2 2 1 1 1 1 1 0 1 1 1 0 -0 0 0 0 1 1 1 2 1 1 1 1
17 17 16 14 12 12 12 10 8 7 7 7 7 6 5 5 4 3 3 3 3 3 2 2 2 2 2 2 2 2 2 2 1 1 0 0 0 -0 0 0 0 0 1 1 2 2 1 1 1
15 15 16 14 12 14 13 13 11 7 7 8 7 6 6 5 4 3 3 4 4 4 3 3 3 2 2 3 3 2 2 1 1 1 0 0 -0 -1 -0 0 0 0 1 1 1 2 2 1 1
15 15 15 13 13 13 13 12 9 8 7 7 7 6 6 5 4 4 3 4 5 5 4 4 3 2 2 2 2 2 2 2 1 0 1 -0 -0 -0 -0 -0 0 0 1 1 2 2 2 1 1
16 16 15 13 12 13 13 13 12 8 7 6 6 5 5 5 5 4 4 3 4 5 5 4 4 3 3 2 3 2 2 2 2 1 1 0 -0 -0 -0 -0 -0 1 1 1 2 2 2 3 2
17 13 13 13 13 15 13 16 14 11 9 8 7 6 6 5 5 5 4 5 4 5 5 4 4 4 3 2 2 2 3 3 2 1 1 1 -0 -0 -0 -0 -0 1 1 2 1 1 1 2 3
14 12 13 13 14 16 14 16 15 11 11 10 8 7 6 5 5 5 5 5 4 4 5 4 4 4 3 3 3 3 2 2 2 2 2 1 0 0 -0 -0 0 1 1 1 1 1 1 1 2
11 13 14 15 16 17 16 16 16 14 12 10 8 8 7 6 5 4 4 3 5 5 5 5 4 3 3 3 3 2 2 2 2 2 2 1 1 0 -0 -0 1 1 1 1 0 0 1 1 1
13 16 18 18 18 18 15 15 15 11 9 9 9 7 6 6 5 5 5 4 3 3 3 4 4 4 3 2 2 2 2 2 2 2 2 2 2 1 1 1 1 1 1 1 0 1 1 1 1
14 15 17 19 19 17 14 18 15 9 8 7 7 7 7 7 6 5 5 4 4 3 3 3 3 4 3 2 2 1 1 3 3 3 3 3 2 1 1 0 1 1 1 0 0 1 1 1 1
13 15 14 16 17 17 17 13 10 9 9 8 8 7 8 7 7 6 5 4 3 3 4 3 2 3 3 2 1 2 3 3 3 3 3 3 2 1 0 0 1 1 1 1 1 1 1 1 1
12 11 14 16 19 20 16 16 16 12 11 9 9 8 7 6 6 5 4 4 3 3 2 3 3 3 2 2 3 4 4 3 3 3 3 2 1 1 1 1 0 1 0 1 1 2 2 3 2
12 14 14 14 15 17 19 18 11 11 10 10 9 8 7 6 6 5 4 3 3 2 2 3 4 4 4 3 4 3 3 3 3 3 1 1 0 0 1 1 1 1 1 1 1 3 4 3 4
12 14 14 15 16 15 16 17 9 9 9 8 8 7 6 6 5 5 4 3 3 3 3 3 3 3 4 3 3 4 3 3 2 2 2 1 1 1 2 2 2 3 3 3 3 4 5 5 5